(323819) = 2005 ST17 = 2010 VR87

Discovered at Kitt Peak on 2005-09-26 by Spacewatch.

Orbit

Orbit type: Main Belt

Note: WebGL enabled browser required.

epoch2023-09-13.0
epoch JD2460200.5
perihelion date2020-02-13.00451
perihelion JD2458892.50451
argument of perihelion (°)42.16613
ascending node (°)15.86789
inclination (°)3.06746
eccentricity0.0833418
perihelion distance (AU)2.5392388
Tisserand w.r.t. Jupiter3.3
ΔV w.r.t. Earth (km/sec)10.0
semimajor axis (AU)2.7701043
mean anomaly (°)279.61850
mean daily motion (°/day)0.21377640
aphelion distance (AU)3.001
period (years)4.61
P-vector [x]0.52967859
P-vector [y]0.76321995
P-vector [z]0.37004852
Q-vector [x]-0.84807224
Q-vector [y]0.46901512
Q-vector [z]0.24657310
absolute magnitude17.19
phase slope0.15
uncertainty0
referenceMPO 779307
observations used199
oppositions12
arc length (days)6592
first opposition used2005
last opposition used2023
residual rms (arc-secs)0.73
perturbers coarse indicatorM-v
perturbers precise indicator003Ek
first observation date used2005-09-26.0
last observation date used2023-10-14.0
computer nameMPCLINUX
JD of orbit computation2456937.434102
perihelion JD uncertainty (days)2.9114E-04
argument of perihelion uncertainty (°)1.0205E-04
ascending node uncertainty (°)7.8901E-05
inclination uncertainty (°)6.3867E-06
eccentricity uncertainty 4.5530E-08
perihelion distance uncertainty (AU)1.3541E-07
Minimum Orbit Intersection Distances (in AU)
for orbit epoch: 2460200.5, reference: E2023-U02
Mercury2.22679
Venus1.81878
Earth1.55109
Mars0.99653
Jupiter2.25927
Saturn6.46864
Uranus15.5878
Neptune27.2498

Observations

204 total observations over interval: 2005 09 26.19896 – 2023 10 14.256189
These data are available for download (format description).

Date (UT) J2000 RA J2000 Dec Magn Location Ref
2005 09 26.19896 00 52 05.46 +04 59 19.6 20.7 V 691 – Steward Observatory, Kitt Peak-Spacewatch MPS 142764
2005 09 26.21653 00 52 04.57 +04 59 16.0 20.7 V 691 – Steward Observatory, Kitt Peak-Spacewatch MPS 142764
2005 09 26.23405 00 52 03.69 +04 59 11.9 20.7 V 691 – Steward Observatory, Kitt Peak-Spacewatch MPS 142764
2005 09 27.17576 00 51 17.57 +04 55 35.4 20.7 V 691 – Steward Observatory, Kitt Peak-Spacewatch MPS 142764
2005 09 27.21892 00 51 15.38 +04 55 25.2 20.9 V 691 – Steward Observatory, Kitt Peak-Spacewatch MPS 142764
2005 09 27.23631 00 51 14.50 +04 55 21.4 20.5 V 691 – Steward Observatory, Kitt Peak-Spacewatch MPS 142764
2005 09 29.32235 00 49 30.32 +04 47 11.8 20.1 V G96 – Mt. Lemmon Survey MPS 142764
2005 09 29.33162 00 49 29.82 +04 47 09.8 20.4 V G96 – Mt. Lemmon Survey MPS 142764
2005 09 29.34095 00 49 29.35 +04 47 07.7 20.2 V G96 – Mt. Lemmon Survey MPS 142764
2005 09 29.35029 00 49 28.84 +04 47 05.2 19.9 V G96 – Mt. Lemmon Survey MPS 142764
2005 10 05.16988 00 44 31.55 +04 23 36.5 20.3 V 691 – Steward Observatory, Kitt Peak-Spacewatch MPS 144131
2005 10 05.18723 00 44 30.66 +04 23 32.3 20.5 V 691 – Steward Observatory, Kitt Peak-Spacewatch MPS 144131
2005 10 05.20451 00 44 29.71 +04 23 28.3 20.6 V 691 – Steward Observatory, Kitt Peak-Spacewatch MPS 144131
2005 10 10.13544 00 40 16.80 +04 03 29.2 20.8 V 691 – Steward Observatory, Kitt Peak-Spacewatch MPS 144131
2005 10 10.15281 00 40 15.90 +04 03 25.6 20.6 V 691 – Steward Observatory, Kitt Peak-Spacewatch MPS 144131
2005 10 10.17018 00 40 15.03 +04 03 21.2 21.0 V 691 – Steward Observatory, Kitt Peak-Spacewatch MPS 144131
2007 01 17.28672 09 10 38.32 +20 55 36.8 21.1 V 691 – Steward Observatory, Kitt Peak-Spacewatch MPS 366998
2007 01 17.30413 09 10 37.34 +20 55 41.7 21.5 V 691 – Steward Observatory, Kitt Peak-Spacewatch MPS 366998
2007 01 17.32154 09 10 36.52 +20 55 45.1 21.1 V 691 – Steward Observatory, Kitt Peak-Spacewatch MPS 366998
2007 01 28.29556 09 00 38.48 +21 36 40.6 20.7 V 691 – Steward Observatory, Kitt Peak-Spacewatch MPS 366998
2007 01 28.31692 09 00 37.21 +21 36 45.0 20.7 V 691 – Steward Observatory, Kitt Peak-Spacewatch MPS 366998
2007 01 28.33486 09 00 36.15 +21 36 48.2 20.8 V 691 – Steward Observatory, Kitt Peak-Spacewatch MPS 366998
2010 10 29.27432 04 03 59.07 +23 43 27.0 20.9 V 691 – Steward Observatory, Kitt Peak-Spacewatch MPS 355340
2010 10 29.29207 04 03 58.29 +23 43 27.1 21.0 V 691 – Steward Observatory, Kitt Peak-Spacewatch MPS 355340
2010 10 29.30983 04 03 57.52 +23 43 27.0 20.8 V 691 – Steward Observatory, Kitt Peak-Spacewatch MPS 355340
2010 11 06.22987 03 57 49.02 +23 39 01.6   691 – Steward Observatory, Kitt Peak-Spacewatch MPS 355731
2010 11 06.25107 03 57 47.95 +23 38 59.7   691 – Steward Observatory, Kitt Peak-Spacewatch MPS 355731
2010 11 06.27227 03 57 46.78 +23 38 59.7   691 – Steward Observatory, Kitt Peak-Spacewatch MPS 355731
2010 11 10.21792 03 54 16.49 +23 34 35.6 20.4 V 691 – Steward Observatory, Kitt Peak-Spacewatch MPS 355731
2010 11 10.23565 03 54 15.49 +23 34 34.5 20.6 V 691 – Steward Observatory, Kitt Peak-Spacewatch MPS 355731
2010 11 10.25337 03 54 14.47 +23 34 33.1 20.9 V 691 – Steward Observatory, Kitt Peak-Spacewatch MPS 355731
2010 11 14.21702 03 50 30.97 +23 28 44.3 20.5 V 691 – Steward Observatory, Kitt Peak-Spacewatch MPS 357421
2010 11 14.23475 03 50 29.98 +23 28 44.0 19.9 V 691 – Steward Observatory, Kitt Peak-Spacewatch MPS 357421
2010 11 14.25245 03 50 28.88 +23 28 41.4 20.0 V 691 – Steward Observatory, Kitt Peak-Spacewatch MPS 357421
2010 12 09.152134 03 27 26.02 +22 31 49.5 21.6 V H21 – Astronomical Research Observatory, Westfield MPS 358887
2010 12 09.160326 03 27 25.63 +22 31 48.3 21.4 V H21 – Astronomical Research Observatory, Westfield MPS 358887
2010 12 09.168688 03 27 25.20 +22 31 46.8 21.3 V H21 – Astronomical Research Observatory, Westfield MPS 358887
2010 12 11.26129 03 25 52.03 +22 26 38.2 20.7 V G96 – Mt. Lemmon Survey MPS 358887
2010 12 11.26811 03 25 51.74 +22 26 37.5 21.0 V G96 – Mt. Lemmon Survey MPS 358887
2010 12 11.27501 03 25 51.42 +22 26 36.6 20.9 V G96 – Mt. Lemmon Survey MPS 358887
2010 12 11.28186 03 25 51.09 +22 26 35.3 20.7 V G96 – Mt. Lemmon Survey MPS 358887
2012 02 19.32361 11 35 49.48 +05 12 58.2 21.3 V 691 – Steward Observatory, Kitt Peak-Spacewatch MPS 413010
2012 02 19.33650 11 35 48.90 +05 13 02.6 21.3 V 691 – Steward Observatory, Kitt Peak-Spacewatch MPS 413010
2012 02 19.34940 11 35 48.38 +05 13 05.7 20.8 V 691 – Steward Observatory, Kitt Peak-Spacewatch MPS 413010
2012 03 14.26589 11 16 18.55 +06 58 27.0 20.6 V G96 – Mt. Lemmon Survey MPS 416129
2012 03 14.27405 11 16 18.12 +06 58 29.3 21.0 V G96 – Mt. Lemmon Survey MPS 416129
2012 03 14.28216 11 16 17.68 +06 58 31.4 20.6 V G96 – Mt. Lemmon Survey MPS 416129
2012 03 14.29028 11 16 17.25 +06 58 33.4 20.5 V G96 – Mt. Lemmon Survey MPS 416129
2012 03 30.25590 11 03 59.18 +07 56 13.2 21.8 V G96 – Mt. Lemmon Survey MPS 418459
2012 03 30.26173 11 03 58.89 +07 56 14.0 21.9 V G96 – Mt. Lemmon Survey MPS 418459
2012 03 30.26757 11 03 58.68 +07 56 15.4 21.6 V G96 – Mt. Lemmon Survey MPS 418459
2012 03 30.27328 11 03 58.42 +07 56 16.2 21.7 V G96 – Mt. Lemmon Survey MPS 418459
2014 07 07.57845 23 35 47.946 -05 31 42.01 21.7 w F51 – Pan-STARRS 1, Haleakala MPS 522760
2014 07 07.58727 23 35 48.122 -05 31 40.95 21.6 w F51 – Pan-STARRS 1, Haleakala MPS 522760
2014 07 07.59606 23 35 48.298 -05 31 40.02 21.6 w F51 – Pan-STARRS 1, Haleakala MPS 522760
2014 07 07.60489 23 35 48.453 -05 31 38.90 21.7 w F51 – Pan-STARRS 1, Haleakala MPS 522760
2014 08 20.49207 23 29 14.254 -06 13 20.62 20.8 w F51 – Pan-STARRS 1, Haleakala MPS 527949
2014 08 20.50422 23 29 13.778 -06 13 23.37 21.1 w F51 – Pan-STARRS 1, Haleakala MPS 527949
2014 08 20.51641 23 29 13.282 -06 13 26.05 21.3 w F51 – Pan-STARRS 1, Haleakala MPS 527949
2014 08 23.48859 23 27 15.191 -06 24 26.70 21.0 w F51 – Pan-STARRS 1, Haleakala MPS 529583
2014 08 23.51178 23 27 14.184 -06 24 32.06 20.9 w F51 – Pan-STARRS 1, Haleakala MPS 529583
2014 08 23.52339 23 27 13.690 -06 24 34.78 20.7 w F51 – Pan-STARRS 1, Haleakala MPS 529583
2014 09 02.30460 23 19 50.05 -07 04 30.6 20.9 V G96 – Mt. Lemmon Survey MPS 531331
2014 09 02.31030 23 19 49.78 -07 04 32.3 20.7 V G96 – Mt. Lemmon Survey MPS 531331
2014 09 02.31599 23 19 49.48 -07 04 33.9 20.4 V G96 – Mt. Lemmon Survey MPS 531331
2014 09 02.32168 23 19 49.14 -07 04 33.5 19.4 V G96 – Mt. Lemmon Survey MPS 531331
2014 09 12.47709 23 11 19.970 -07 47 32.36 20.2 i F51 – Pan-STARRS 1, Haleakala MPS 532988
2014 09 12.48857 23 11 19.375 -07 47 35.29 20.3 i F51 – Pan-STARRS 1, Haleakala MPS 532988
2014 09 12.50008 23 11 18.771 -07 47 38.33 20.1 i F51 – Pan-STARRS 1, Haleakala MPS 532988
2014 09 12.51157 23 11 18.168 -07 47 41.06 20.3 i F51 – Pan-STARRS 1, Haleakala MPS 532988
2014 09 19.33945 23 05 37.866 -08 14 28.48 20.9 w F51 – Pan-STARRS 1, Haleakala MPS 536308
2014 09 19.35089 23 05 37.299 -08 14 30.95 20.8 w F51 – Pan-STARRS 1, Haleakala MPS 536308
2014 09 23.32545 23 02 28.599 -08 28 30.02 20.5 w F51 – Pan-STARRS 1, Haleakala MPS 536308
2014 09 23.33688 23 02 28.027 -08 28 32.31 20.7 w F51 – Pan-STARRS 1, Haleakala MPS 536308
2014 10 03.16443 22 55 37.74 -08 55 52.5 20.8 V G96 – Mt. Lemmon Survey MPS 538704
2014 10 03.17435 22 55 37.35 -08 55 53.4 21.7 V G96 – Mt. Lemmon Survey MPS 538704
2014 10 03.19419 22 55 36.57 -08 55 55.8 21.2 V G96 – Mt. Lemmon Survey MPS 538704
2016 01 02.44744 07 09 37.23 +27 25 41.4 20.9 V G96 – Mt. Lemmon Survey MPS 668014
2016 01 02.45308 07 09 36.87 +27 25 42.2 20.5 V G96 – Mt. Lemmon Survey MPS 668014
2016 01 02.45871 07 09 36.55 +27 25 42.8 20.5 V G96 – Mt. Lemmon Survey MPS 668014
2016 01 02.46434 07 09 36.17 +27 25 43.3 20.4 V G96 – Mt. Lemmon Survey MPS 668014
2017 03 21.44502 13 39 33.362 -10 32 26.77 21.4 w F51 – Pan-STARRS 1, Haleakala MPS 781485
2017 03 21.45697 13 39 32.892 -10 32 24.78 21.3 w F51 – Pan-STARRS 1, Haleakala MPS 781485
2017 03 21.46894 13 39 32.376 -10 32 22.63 21.8 w F51 – Pan-STARRS 1, Haleakala MPS 781485
2017 03 28.50280 13 34 31.731 -10 10 41.21 21.5 w F51 – Pan-STARRS 1, Haleakala MPS 784647
2017 03 28.51445 13 34 31.188 -10 10 38.82 21.1 w F51 – Pan-STARRS 1, Haleakala MPS 784647
